DELTA 2 R/B

Last updated on Wed Sep 17 2025 00:02:15 GMT+0000 (Coordinated Universal Time)

1 25876U 99041E 25259.46455664 .00000651 00000+0 14347-3 0 9997 2 25876 51.7623 276.7134 0505536 194.4153 164.1889 14.11118501338425
UTC large
Height (km)
Speed (km/s)
/
Latitude / Longitude
Inclination (degrees)
Orbital Period (minutes)
Azimuth
Elevation
Range (km)
Doppler Factor

Next 0 passes for location: London (51.5072 / 0.1276)

Sorry there are no passes over London.